Weather reports worldwide

Advertisment
Abbeville, France (7005): temperature & dewpoint: 20.05.2019 02:00:00 - 26.05.2019 02:00:00 (CEST)Abbeville, France (7005): temperature 5cm: 20.05.2019 02:00:00 - 26.05.2019 02:00:00 (CEST)Abbeville, France (7005): temperature -20cm & temperature -100cm: 20.05.2019 02:00:00 - 26.05.2019 02:00:00 (CEST)Abbeville, France (7005): wind speed & gusts: 20.05.2019 02:00:00 - 26.05.2019 02:00:00 (CEST)Abbeville, France (7005): wind direction: 20.05.2019 02:00:00 - 26.05.2019 02:00:00 (CEST)Abbeville, France (7005): reduced air pressure: 20.05.2019 02:00:00 - 26.05.2019 02:00:00 (CEST)Abbeville, France (7005): visibility: 20.05.2019 02:00:00 - 26.05.2019 02:00:00 (CEST)Abbeville, France (7005): sunshine duration: 20.05.2019 02:00:00 - 26.05.2019 02:00:00 (CEST)Abbeville, France (7005): precipitation: 20.05.2019 02:00:00 - 26.05.2019 02:00:00 (CEST)
Date & Time tt [°C] td [°C] tt 5cm [°C] tt -20cm [°C] tt -100cm [°C] ff [km/h] ff [kn] fx [km/h] fx [kn] dd ppp [hPa] vv [km] sd [min] rr [mm]
26.05.2019 02:00:00 - - - - - - - - - - - - - -
26.05.2019 01:00:00 10,9 9,3 9,0 17,0 12,3 5 3 10 5 SSW 1019,2 19 0 0,0
26.05.2019 00:00:00 11,4 9,3 9,1 17,3 12,3 5 3 14 8 SW 1019,7 20 0 0,0
25.05.2019 23:00:00 12,2 9,9 10,4 17,5 12,2 12 7 19 10 W 1019,8 20 0 0,0
25.05.2019 22:00:00 13,0 10,4 11,0 17,7 12,2 10 5 19 11 W 1019,4 20 16 0,0
25.05.2019 21:00:00 14,7 11,5 13,8 17,8 12,2 14 8 24 13 W 1019,0 15 60 0,0
25.05.2019 20:00:00 16,4 11,1 16,4 17,7 12,2 18 10 30 16 W 1019,1 20 58 0,0
25.05.2019 19:00:00 17,2 10,3 17,1 17,5 12,2 18 10 30 16 W 1018,9 20 16 0,0
25.05.2019 18:00:00 18,5 9,6 21,2 17,3 12,2 22 12 35 19 W 1018,8 20 60 0,0
25.05.2019 17:00:00 18,8 10,1 20,0 16,9 12,2 16 9 29 15 WNW 1018,8 20 28 0,0
25.05.2019 16:00:00 19,2 9,4 20,8 16,3 12,2 19 10 31 17 WNW 1019,0 20 46 0,0
25.05.2019 15:00:00 19,4 9,6 21,4 15,9 12,2 18 10 28 15 W 1019,2 20 60 0,0
25.05.2019 14:00:00 18,3 10,6 20,1 15,5 12,2 16 9 25 13 W 1019,5 20 40 0,0
25.05.2019 13:00:00 17,5 10,4 18,6 15,4 12,2 14 7 28 15 WNW 1019,6 20 5 0,0
25.05.2019 12:00:00 16,6 11,3 16,1 15,3 12,1 13 7 22 12 W 1019,7 20 0 0,0
25.05.2019 11:00:00 15,5 11,1 14,9 15,3 12,1 9 5 17 9 WNW 1019,5 20 0 0,0
25.05.2019 10:00:00 15,1 11,1 14,4 15,3 12,2 11 6 19 10 NW 1019,4 20 0 0,0
25.05.2019 09:00:00 14,5 12,5 12,2 15,4 12,1 13 7 17 9 WNW 1018,9 14 0 0,0
25.05.2019 08:00:00 12,9 11,6 10,9 15,6 12,1 9 5 14 8 W 1018,4 7 0 0,0
25.05.2019 07:00:00 12,2 10,9 10,0 15,8 12,1 8 4 12 6 W 1018,2 5 2 0,0
25.05.2019 06:00:00 11,8 10,4 9,7 16,0 12,1 8 4 14 7 W 1018,0 6 0 0,0
25.05.2019 05:00:00 11,9 10,3 9,7 16,2 12,1 11 6 16 9 W 1017,9 7 0 0,0
25.05.2019 04:00:00 12,3 10,0 10,4 16,5 12,1 12 6 18 10 W 1018,0 10 0 0,0
25.05.2019 03:00:00 13,1 9,9 11,2 16,7 12,1 10 5 15 8 W 1017,9 20 0 0,0
25.05.2019 02:00:00 13,0 9,4 11,0 17,0 12,1 7 4 10 5 WSW 1018,0 20 0 0,0
25.05.2019 01:00:00 13,1 9,3 11,5 17,3 12,1 5 3 10 6 WSW 1018,4 20 0 0,0
25.05.2019 00:00:00 13,1 9,5 11,7 17,5 12,1 5 3 13 7 W 1018,5 19 0 0,0
24.05.2019 23:00:00 13,3 9,4 11,9 17,8 12,1 11 6 16 9 W 1018,4 20 0 0,0
24.05.2019 22:00:00 13,9 9,5 12,5 18,0 12,1 8 4 29 15 W 1018,0 20 0 0,0
24.05.2019 21:00:00 14,5 9,9 13,6 18,2 12,1 19 10 35 19 WNW 1017,6 20 0 0,0
24.05.2019 20:00:00 15,1 10,1 14,6 18,2 12,0 24 13 35 19 WNW 1017,1 19 53 0,0
24.05.2019 19:00:00 17,9 9,8 20,0 18,0 12,0 23 13 34 18 WNW 1016,7 20 60 0,0
24.05.2019 18:00:00 19,5 9,1 22,7 17,7 12,0 21 12 31 17 WNW 1016,8 20 60 0,0
24.05.2019 17:00:00 19,9 9,5 23,5 17,2 12,0 22 12 32 17 W 1016,7 20 60 0,0
24.05.2019 16:00:00 20,0 12,5 24,7 16,6 12,0 17 9 26 14 WNW 1016,9 17 60 0,0
24.05.2019 15:00:00 19,9 12,6 24,4 16,0 12,0 14 8 31 17 W 1017,0 19 60 0,0
24.05.2019 14:00:00 18,7 11,5 22,8 15,5 12,0 14 8 24 13 WNW 1017,3 20 60 0,0
24.05.2019 13:00:00 18,0 11,5 20,2 15,1 12,0 16 8 27 15 WNW 1017,4 19 54 0,0
24.05.2019 12:00:00 17,3 11,6 21,7 14,7 12,0 15 8 25 13 WNW 1017,2 20 60 0,0
24.05.2019 11:00:00 16,6 11,5 19,5 14,6 12,0 10 6 22 12 W 1016,9 19 60 0,0
24.05.2019 10:00:00 15,1 11,5 15,7 14,6 12,0 16 8 24 13 W 1016,9 19 56 0,0
24.05.2019 09:00:00 12,8 11,2 13,0 14,6 12,0 10 5 19 11 W 1017,0 7 38 0,0
24.05.2019 08:00:00 11,1 9,5 10,4 14,8 12,0 4 2 9 5 SSW 1016,8 7 6 0,0
24.05.2019 07:00:00 10,1 8,9 6,3 15,1 12,0 4 2 8 5 SW 1016,7 7 3 0,0
24.05.2019 06:00:00 9,0 7,3 6,7 15,4 12,0 4 2 10 5 SW 1016,6 6 0 0,0
24.05.2019 05:00:00 10,1 8,2 7,8 15,7 12,0 6 4 10 6 WSW 1016,5 9 0 0,0
24.05.2019 04:00:00 10,7 8,1 8,8 16,0 12,0 9 5 17 9 W 1016,4 13 0 0,0
24.05.2019 03:00:00 12,0 9,6 10,6 16,2 12,0 10 5 14 8 W 1016,6 10 0 0,0
24.05.2019 02:00:00 12,5 10,0 11,3 16,5 11,9 7 4 13 7 WNW 1016,7 13 0 0,0
24.05.2019 01:00:00 12,9 10,4 11,9 16,8 11,9 5 3 13 7 WSW 1017,0 14 0 0,0
24.05.2019 00:00:00 13,3 10,7 12,4 17,0 12,0 8 5 15 8 W 1017,2 18 0 0,0
23.05.2019 23:00:00 13,9 11,4 12,6 17,2 11,9 8 5 13 7 WNW 1017,1 16 0 1,6
23.05.2019 22:00:00 14,9 10,5 12,7 17,3 11,9 5 3 25 13 W 1016,9 12 0 0,4
23.05.2019 21:00:00 16,4 10,0 15,9 17,4 11,9 15 8 22 12 W 1016,7 20 0 0,0
23.05.2019 20:00:00 19,4 9,6 19,6 17,3 11,9 10 6 18 10 WNW 1016,2 20 26 0,0
23.05.2019 19:00:00 20,1 9,3 20,6 17,2 11,9 12 6 24 13 NW 1016,3 20 26 0,0
23.05.2019 18:00:00 19,8 9,7 20,8 16,9 11,9 20 11 28 15 WNW 1016,4 20 10 0,0
23.05.2019 17:00:00 22,6 9,0 23,0 16,5 11,9 6 3 19 10 WNW 1016,6 20 15 0,0
23.05.2019 16:00:00 22,1 8,6 23,2 16,1 11,9 9 5 22 12 W 1016,9 20 17 0,0
23.05.2019 15:00:00 23,2 8,8 23,7 15,5 11,9 10 5 20 11 WSW 1017,3 20 30 0,0
23.05.2019 14:00:00 22,6 7,9 23,6 15,0 11,9 6 4 22 12 SW 1017,5 20 32 0,0
23.05.2019 13:00:00 22,1 7,9 25,9 14,4 11,9 9 5 20 11 SSW 1018,0 20 31 0,0
23.05.2019 12:00:00 21,7 7,9 24,3 14,0 11,9 8 5 22 12 SSW 1018,3 20 55 0,0
23.05.2019 11:00:00 20,2 10,3 19,7 13,7 11,8 7 4 16 9 SSE 1018,6 20 57 0,0
23.05.2019 10:00:00 17,4 9,0 18,2 13,6 11,8 10 5 14 8 SSE 1018,7 20 53 0,0
23.05.2019 09:00:00 14,2 9,0 14,2 13,7 11,9 10 5 14 8 SSE 1018,9 20 60 0,0
23.05.2019 08:00:00 11,3 8,2 9,2 13,9 11,8 8 4 11 6 SE 1019,0 20 18 0,0
23.05.2019 07:00:00 8,9 6,5 7,0 14,2 11,8 8 4 11 6 SE 1018,9 18 31 0,2
23.05.2019 06:00:00 7,9 6,0 6,2 14,4 11,9 8 4 10 6 SE 1018,9 18 0 0,0
23.05.2019 05:00:00 7,6 6,1 6,3 14,7 11,9 6 3 9 5 SE 1019,0 12 0 0,0
23.05.2019 04:00:00 8,1 6,6 6,5 15,0 11,9 9 5 10 5 SE 1019,3 10 0 0,0
23.05.2019 03:00:00 9,1 7,0 7,6 15,3 11,9 8 4 9 5 SE 1019,5 12 0 0,0
23.05.2019 02:00:00 9,4 7,7 7,8 15,6 11,9 6 4 9 5 SE 1019,9 10 0 0,0
23.05.2019 01:00:00 10,2 7,4 7,9 16,0 11,9 5 3 6 3 SE 1020,1 13 0 0,0
23.05.2019 00:00:00 11,3 8,0 8,5 16,3 11,8 4 2 6 4 SE 1020,3 18 0 0,0
22.05.2019 23:00:00 11,3 8,3 8,5 16,5 11,8 4 2 6 3 W 1020,5 20 0 0,0
22.05.2019 22:00:00 12,9 8,4 10,7 16,6 11,8 6 3 9 5 WNW 1020,5 20 13 0,0
22.05.2019 21:00:00 15,7 9,8 15,7 16,7 11,8 7 4 14 8 W 1020,2 20 60 0,0
22.05.2019 20:00:00 17,2 9,6 19,6 16,6 11,8 10 5 17 9 W 1020,2 20 60 0,0
22.05.2019 19:00:00 17,3 9,7 19,3 16,4 11,8 14 8 18 10 WNW 1020,2 20 39 0,0
22.05.2019 18:00:00 17,9 10,5 20,3 16,1 11,8 13 7 20 11 WNW 1020,2 20 18 0,0
22.05.2019 17:00:00 18,5 8,5 21,7 15,8 11,8 13 7 21 12 WNW 1020,5 20 38 0,0
22.05.2019 16:00:00 18,5 8,7 21,7 15,4 11,8 14 8 24 13 WNW 1020,7 20 6 0,0
22.05.2019 15:00:00 18,2 8,7 21,6 15,0 11,8 17 9 25 13 WNW 1020,9 20 32 0,0
22.05.2019 14:00:00 17,5 9,6 20,8 14,6 11,8 15 8 24 13 W 1021,2 20 44 0,0
22.05.2019 13:00:00 16,9 10,3 19,9 14,2 11,8 14 7 22 12 W 1021,2 20 0 0,0
22.05.2019 12:00:00 16,7 10,1 20,0 13,9 11,8 11 6 18 10 W 1021,1 19 26 0,0
22.05.2019 11:00:00 15,4 10,4 16,5 13,8 11,8 6 3 16 8 W 1020,9 20 19 0,0
22.05.2019 10:00:00 14,1 9,3 15,3 13,7 11,8 9 5 14 8 W 1020,9 20 33 0,0
22.05.2019 09:00:00 12,8 8,9 14,3 13,8 11,8 5 3 8 4 WSW 1020,6 20 58 0,0
22.05.2019 08:00:00 10,9 8,6 9,7 14,0 11,8 4 2 8 4 SE 1020,3 13 51 0,0
22.05.2019 07:00:00 8,4 7,0 6,1 14,3 11,8 6 3 8 4 ESE 1020,2 7 35 0,0
22.05.2019 06:00:00 7,6 6,4 5,3 14,6 11,8 3 2 6 4 SE 1020,3 5 0 0,0
22.05.2019 05:00:00 8,2 6,8 6,0 14,9 11,8 4 2 6 3 SE 1020,1 7 0 0,0
22.05.2019 04:00:00 8,6 6,9 5,7 15,2 11,8 3 1 5 3 SSE 1020,3 7 0 0,0
22.05.2019 03:00:00 8,9 7,2 6,8 15,5 11,7 3 2 7 4 SE 1020,2 7 0 0,0
22.05.2019 02:00:00 9,6 7,9 7,0 15,9 11,7 3 2 8 5 SSE 1020,2 10 0 0,0
22.05.2019 01:00:00 9,9 8,2 7,7 16,2 11,8 7 4 10 5 SW 1020,1 9 0 0,0
22.05.2019 00:00:00 10,7 9,0 8,6 16,5 11,7 6 3 12 6 SSW 1020,2 3,5 0 0,0
21.05.2019 23:00:00 11,5 9,6 9,8 16,8 11,7 8 4 13 7 W 1020,2 6 0 0,0
21.05.2019 22:00:00 12,5 9,9 11,0 16,9 11,7 10 5 20 11 WNW 1019,9 7 12 0,0
21.05.2019 21:00:00 14,8 9,6 14,8 17,0 11,7 14 8 22 12 NW 1019,5 14 60 0,0
21.05.2019 20:00:00 16,9 9,1 18,4 16,9 11,7 16 9 27 14 W 1019,0 20 60 0,0
21.05.2019 19:00:00 18,1 8,9 21,5 16,8 11,7 17 9 29 15 NW 1018,5 20 60 0,0
21.05.2019 18:00:00 18,8 9,3 22,6 16,4 11,7 19 10 30 16 WNW 1018,4 20 60 0,0
21.05.2019 17:00:00 19,0 8,9 23,4 16,0 11,7 22 12 35 19 WNW 1018,2 20 60 0,0
21.05.2019 16:00:00 19,3 9,2 24,0 15,4 11,7 23 12 37 20 WNW 1018,2 20 60 0,0
21.05.2019 15:00:00 19,5 8,5 22,1 14,9 11,7 21 11 40 22 WNW 1018,0 20 54 0,0
21.05.2019 14:00:00 19,6 9,8 21,8 14,4 11,7 23 12 36 20 WNW 1017,7 20 56 0,0
21.05.2019 13:00:00 19,0 10,3 20,1 13,8 11,7 17 9 33 18 WNW 1017,6 20 43 0,0
21.05.2019 12:00:00 18,5 10,3 23,4 13,5 11,7 12 6 24 13 NW 1017,4 18 60 0,0
21.05.2019 11:00:00 17,4 11,0 22,1 13,2 11,7 10 5 22 12 NNW 1017,5 18 57 0,0
21.05.2019 10:00:00 16,0 11,6 17,7 13,1 11,7 12 7 18 10 NNW 1017,2 11 60 0,0
21.05.2019 09:00:00 13,5 12,6 13,8 13,2 11,7 11 6 16 8 W 1016,7 4,5 60 0,0
21.05.2019 08:00:00 11,2 10,6 8,8 13,4 11,7 9 5 13 7 W 1016,6 2,5 19 0,0
21.05.2019 07:00:00 9,3 8,7 7,0 13,6 11,7 4 2 6 3 SW 1016,1 1,3 0 0,2
21.05.2019 06:00:00 9,5 8,7 7,3 13,8 11,7 5 3 9 5 SW 1015,5 0,9 0 0,0
21.05.2019 05:00:00 9,8 9,0 8,2 14,0 11,7 5 3 12 6 W 1015,6 1,5 0 0,0
21.05.2019 04:00:00 10,0 9,1 8,9 14,2 11,7 9 5 16 9 W 1015,5 1,9 0 0,0
21.05.2019 03:00:00 10,4 9,3 8,9 14,5 11,7 12 6 18 10 W 1015,2 2,8 0 0,0
21.05.2019 02:00:00 10,4 9,2 9,0 14,7 11,7 11 6 14 7 W 1015,4 3,5 0 0,0
21.05.2019 01:00:00 10,4 8,5 9,3 15,0 11,6 10 5 14 8 W 1015,4 6 0 0,0
21.05.2019 00:00:00 10,6 8,7 9,4 15,3 11,7 10 6 14 7 W 1015,4 7 0 0,0
20.05.2019 23:00:00 10,9 8,8 9,7 15,5 11,6 10 6 15 8 W 1015,2 8 0 0,0
20.05.2019 22:00:00 12,0 9,0 10,9 15,7 11,6 9 5 26 14 WNW 1014,5 10 10 0,0
20.05.2019 21:00:00 13,9 8,1 13,8 15,7 11,6 16 9 28 15 WNW 1013,9 20 60 0,0
20.05.2019 20:00:00 15,2 10,0 16,5 15,7 11,6 21 11 34 18 WNW 1013,4 15 56 0,0
20.05.2019 19:00:00 15,8 10,5 17,5 15,5 11,6 21 11 36 19 WNW 1012,9 13 44 0,0
20.05.2019 18:00:00 18,1 8,6 19,7 15,2 11,6 21 11 35 19 NNW 1012,7 20 50 0,0
20.05.2019 17:00:00 18,2 9,0 20,6 14,9 11,6 21 11 33 18 N 1012,7 20 44 0,0
20.05.2019 16:00:00 17,9 11,2 20,1 14,6 11,6 22 12 34 18 NW 1012,5 17 26 0,0
20.05.2019 15:00:00 16,5 11,2 18,8 14,3 11,6 18 10 31 17 WNW 1012,4 15 9 0,0
20.05.2019 14:00:00 15,9 11,1 18,5 13,9 11,6 23 12 37 20 W 1011,8 13 22 0,0
20.05.2019 13:00:00 16,4 11,5 18,5 13,6 11,6 21 11 35 19 WNW 1011,3 14 46 0,0
20.05.2019 12:00:00 15,4 11,0 18,0 13,4 11,6 18 10 29 16 NW 1011,2 19 27 0,0
20.05.2019 11:00:00 14,6 10,8 15,4 13,3 11,6 18 10 25 14 NNW 1011,5 15 23 0,0
20.05.2019 10:00:00 13,2 11,1 13,5 13,2 11,6 16 9 23 12 NW 1011,1 12 2 0,0
20.05.2019 09:00:00 12,3 10,9 12,5 13,3 11,6 13 7 21 11 NW 1010,9 10 0 0,0
20.05.2019 08:00:00 11,8 10,7 11,4 13,3 11,6 13 7 18 10 NNW 1010,6 8 0 0,0
20.05.2019 07:00:00 11,1 10,2 10,6 13,5 11,6 10 5 15 8 NNW 1010,2 7 0 0,0
20.05.2019 06:00:00 10,9 10,0 10,5 13,6 11,6 11 6 18 10 NW 1010,0 6 0 0,0
20.05.2019 05:00:00 10,9 9,8 10,5 13,7 11,6 10 5 19 11 NW 1009,8 4,8 0 0,0
20.05.2019 04:00:00 11,1 9,8 10,4 13,8 11,6 13 7 18 10 NW 1009,7 6 0 0,0
20.05.2019 03:00:00 11,1 9,7 10,3 14,0 11,6 13 7 18 10 NW 1009,9 10 0 0,0
20.05.2019 02:00:00 11,0 9,6 10,2 14,2 11,6 11 6 19 10 NW 1010,2 12 0 0,0

tt = temperature
td = dewpoint
tt 5cm = temperature 5cm
tt -20cm = temperature -20cm
tt -100cm = temperature -100cm
ff = wind speed
fx = gusts
dd = wind direction
ppp = reduced air pressure
vv = visibility
sd = sunshine duration
rr = precipitation

Next stations